Previsão horária em Kabaly

Hoje, 21 Junho, Segunda-feira

Tempo Temperatura Precipitação Vento Pressão Humidade
00:00 +20°C° 0 mm 3 m/s 739 mmHg 84%
01:00 +20°C° 0 mm 3 m/s 739 mmHg 88%
02:00 +19°C° 0 mm 3 m/s 739 mmHg 88%
03:00 +19°C° 0 mm 3 m/s 738 mmHg 89%
04:00 +19°C° 0 mm 3 m/s 738 mmHg 89%
05:00 +20°C° 0 mm 4 m/s 738 mmHg 84%
06:00 +21°C° 0 mm 4 m/s 738 mmHg 79%
07:00 +23°C° 0 mm 4 m/s 738 mmHg 74%
08:00 +25°C° 0 mm 4 m/s 739 mmHg 68%
09:00 +27°C° 0 mm 4 m/s 739 mmHg 62%
10:00 +28°C° 0 mm 4 m/s 739 mmHg 56%
11:00 +29°C° 0 mm 4 m/s 738 mmHg 52%
12:00 +30°C° 0 mm 3 m/s 738 mmHg 49%
13:00 +31°C° 0 mm 3 m/s 738 mmHg 46%
14:00 +31°C° 0 mm 3 m/s 738 mmHg 46%
15:00 +31°C° 0 mm 3 m/s 737 mmHg 46%
16:00 +31°C° 0 mm 3 m/s 737 mmHg 45%
17:00 +30°C° 0 mm 3 m/s 737 mmHg 52%
18:00 +29°C° 0 mm 3 m/s 737 mmHg 59%
19:00 +27°C° 0 mm 2 m/s 737 mmHg 67%
20:00 +25°C° 0.9 mm 3 m/s 738 mmHg 75%
21:00 +22°C° 0.9 mm 4 m/s 738 mmHg 84%
22:00 +20°C° 0.9 mm 5 m/s 739 mmHg 92%
23:00 +20°C° 0.2 mm 4 m/s 738 mmHg 92%

Amanhã, 22 Junho, Terça-feira

Tempo Temperatura Precipitação Vento Pressão Humidade
00:00 +20°C° 0.2 mm 2 m/s 738 mmHg 91%
01:00 +21°C° 0.2 mm 1 m/s 738 mmHg 91%
02:00 +21°C° 0 mm 1 m/s 738 mmHg 90%
03:00 +19°C° 0 mm 2 m/s 738 mmHg 90%
04:00 +19°C° 0 mm 2 m/s 738 mmHg 90%
05:00 +20°C° 0.3 mm 2 m/s 739 mmHg 86%
06:00 +21°C° 0.3 mm 2 m/s 739 mmHg 83%
07:00 +22°C° 0.3 mm 3 m/s 739 mmHg 79%
08:00 +25°C° 0 mm 3 m/s 740 mmHg 73%
09:00 +26°C° 0 mm 2 m/s 740 mmHg 67%
10:00 +28°C° 0 mm 2 m/s 740 mmHg 62%
11:00 +29°C° 0 mm 2 m/s 740 mmHg 59%
12:00 +29°C° 0 mm 2 m/s 740 mmHg 56%
13:00 +30°C° 0 mm 2 m/s 740 mmHg 53%
14:00 +30°C° 0 mm 2 m/s 740 mmHg 53%
15:00 +31°C° 0 mm 3 m/s 740 mmHg 52%
16:00 +31°C° 0 mm 3 m/s 740 mmHg 52%
17:00 +28°C° 1.7 mm 4 m/s 740 mmHg 64%
18:00 +25°C° 1.7 mm 4 m/s 740 mmHg 76%
19:00 +22°C° 1.7 mm 5 m/s 740 mmHg 87%
20:00 +21°C° 1.9 mm 4 m/s 740 mmHg 89%
21:00 +21°C° 1.9 mm 3 m/s 741 mmHg 90%
22:00 +21°C° 1.9 mm 1 m/s 741 mmHg 92%
23:00 +21°C° 0.1 mm 1 m/s 741 mmHg 92%

Depois de amanhã, 23 Junho, Quarta-feira

Tempo Temperatura Precipitação Vento Pressão Humidade
00:00 +21°C° 0.1 mm 1 m/s 741 mmHg 93%
01:00 +21°C° 0.1 mm 1 m/s 742 mmHg 93%
02:00 +21°C° 0 mm 1 m/s 742 mmHg 94%
03:00 +20°C° 0 mm 1 m/s 742 mmHg 95%
04:00 +19°C° 0 mm 2 m/s 742 mmHg 95%
05:00 +20°C° 0 mm 2 m/s 742 mmHg 93%
06:00 +21°C° 0 mm 2 m/s 743 mmHg 90%
07:00 +23°C° 0 mm 2 m/s 743 mmHg 87%
08:00 +24°C° 0 mm 2 m/s 743 mmHg 83%
09:00 +25°C° 0 mm 2 m/s 743 mmHg 78%
10:00 +25°C° 0 mm 3 m/s 744 mmHg 74%
11:00 +26°C° 0.1 mm 3 m/s 744 mmHg 73%
12:00 +26°C° 0.1 mm 2 m/s 744 mmHg 71%
13:00 +27°C° 0.1 mm 2 m/s 744 mmHg 70%
14:00 +27°C° 0.6 mm 2 m/s 744 mmHg 69%
15:00 +27°C° 0.6 mm 2 m/s 744 mmHg 68%
16:00 +27°C° 0.6 mm 2 m/s 744 mmHg 67%
17:00 +27°C° 0.2 mm 2 m/s 744 mmHg 72%
18:00 +26°C° 0.2 mm 2 m/s 744 mmHg 77%
19:00 +25°C° 0.2 mm 2 m/s 744 mmHg 82%
20:00 +24°C° 0 mm 2 m/s 744 mmHg 84%
21:00 +23°C° 0 mm 2 m/s 744 mmHg 87%
22:00 +21°C° 0 mm 2 m/s 745 mmHg 90%
23:00 +20°C° 0 mm 2 m/s 745 mmHg 91%

24 Junho, Quinta-feira

Tempo Temperatura Precipitação Vento Pressão Humidade
00:00 +20°C° 0 mm 2 m/s 745 mmHg 91%
01:00 +20°C° 0 mm 2 m/s 745 mmHg 92%
02:00 +19°C° 0 mm 2 m/s 745 mmHg 92%
03:00 +19°C° 0 mm 2 m/s 745 mmHg 93%
04:00 +19°C° 0 mm 2 m/s 744 mmHg 93%
05:00 +21°C° 0 mm 1 m/s 745 mmHg 91%
06:00 +22°C° 0 mm 1 m/s 745 mmHg 88%
07:00 +23°C° 0 mm 1 m/s 745 mmHg 86%
08:00 +24°C° 0.1 mm 1 m/s 745 mmHg 80%
09:00 +26°C° 0.1 mm 1 m/s 745 mmHg 75%
10:00 +27°C° 0.1 mm 1 m/s 745 mmHg 70%
11:00 +28°C° 0.5 mm 1 m/s 745 mmHg 68%
12:00 +28°C° 0.5 mm 1 m/s 744 mmHg 66%
13:00 +28°C° 0.5 mm 1 m/s 744 mmHg 64%
14:00 +29°C° 0.2 mm 1 m/s 744 mmHg 62%
15:00 +29°C° 0.2 mm 1 m/s 744 mmHg 61%
16:00 +30°C° 0.2 mm 1 m/s 744 mmHg 59%
17:00 +29°C° 0.5 mm 1 m/s 743 mmHg 65%
18:00 +28°C° 0.5 mm 2 m/s 743 mmHg 71%
19:00 +26°C° 0.5 mm 2 m/s 743 mmHg 77%
20:00 +25°C° 1.8 mm 2 m/s 742 mmHg 82%
21:00 +24°C° 1.8 mm 2 m/s 742 mmHg 87%
22:00 +21°C° 1.8 mm 2 m/s 742 mmHg 92%
23:00 +21°C° 1.8 mm 2 m/s 741 mmHg 93%

25 Junho, Sexta-feira

Tempo Temperatura Precipitação Vento Pressão Humidade
00:00 +20°C° 1.8 mm 2 m/s 741 mmHg 94%
01:00 +20°C° 1.8 mm 3 m/s 740 mmHg 96%
02:00 +20°C° 6.3 mm 3 m/s 740 mmHg 96%
03:00 +20°C° 6.3 mm 3 m/s 741 mmHg 96%
04:00 +20°C° 6.3 mm 3 m/s 741 mmHg 97%
05:00 +20°C° 0 mm 3 m/s 741 mmHg 93%
06:00 +21°C° 0 mm 3 m/s 741 mmHg 88%
07:00 +23°C° 0 mm 2 m/s 741 mmHg 84%
08:00 +22°C° 0 mm 3 m/s 741 mmHg 82%
09:00 +23°C° 0 mm 4 m/s 741 mmHg 79%
10:00 +23°C° 0 mm 4 m/s 741 mmHg 76%
11:00 +25°C° 0.8 mm 4 m/s 741 mmHg 76%
12:00 +25°C° 0.8 mm 4 m/s 741 mmHg 75%
13:00 +25°C° 0.8 mm 4 m/s 741 mmHg 75%
14:00 +25°C° 1.4 mm 4 m/s 741 mmHg 75%
15:00 +25°C° 1.4 mm 4 m/s 741 mmHg 75%
16:00 +25°C° 1.4 mm 4 m/s 741 mmHg 75%
17:00 +23°C° 0.9 mm 4 m/s 741 mmHg 78%
18:00 +22°C° 0.9 mm 4 m/s 741 mmHg 82%
19:00 +21°C° 0.9 mm 4 m/s 741 mmHg 85%
20:00 +20°C° 0.4 mm 3 m/s 741 mmHg 87%
21:00 +20°C° 0.4 mm 3 m/s 742 mmHg 88%
22:00 +19°C° 0.4 mm 2 m/s 742 mmHg 90%
23:00 +19°C° 0.5 mm 2 m/s 742 mmHg 91%

26 Junho, Sábado

Tempo Temperatura Precipitação Vento Pressão Humidade
00:00 +18°C° 0.5 mm 2 m/s 742 mmHg 93%
01:00 +18°C° 0.5 mm 2 m/s 742 mmHg 94%
02:00 +18°C° 0.2 mm 3 m/s 742 mmHg 95%
03:00 +18°C° 0.2 mm 3 m/s 742 mmHg 95%
04:00 +17°C° 0.2 mm 3 m/s 742 mmHg 96%
05:00 +18°C° 0.3 mm 4 m/s 743 mmHg 94%
06:00 +18°C° 0.3 mm 4 m/s 743 mmHg 92%
07:00 +18°C° 0.3 mm 4 m/s 743 mmHg 89%
08:00 +18°C° 0.1 mm 4 m/s 743 mmHg 85%
09:00 +19°C° 0.1 mm 4 m/s 744 mmHg 80%
10:00 +20°C° 0.1 mm 5 m/s 744 mmHg 75%
11:00 +20°C° 0 mm 4 m/s 743 mmHg 72%
12:00 +21°C° 0 mm 4 m/s 743 mmHg 69%
13:00 +22°C° 0 mm 3 m/s 743 mmHg 66%
14:00 +21°C° 0.4 mm 4 m/s 743 mmHg 70%
15:00 +21°C° 0.4 mm 4 m/s 743 mmHg 74%
16:00 +20°C° 0.4 mm 5 m/s 743 mmHg 78%
17:00 +20°C° 0.5 mm 5 m/s 743 mmHg 82%
18:00 +19°C° 0.5 mm 5 m/s 743 mmHg 85%
19:00 +17°C° 0.5 mm 5 m/s 743 mmHg 88%
20:00 +17°C° 0 mm 5 m/s 743 mmHg 90%
21:00 +17°C° 0 mm 4 m/s 743 mmHg 92%
22:00 +15°C° 0 mm 4 m/s 743 mmHg 94%
23:00 +14°C° 0 mm 4 m/s 743 mmHg 95%
Mostrar mais

Necessitamos do seu Consentimento

A Meteoprog e os seus Fornecedores de Serviços podem armazenar e aceder a dados pessoais como cookies, identificadores do dispositivo ou outras tecnologias semelhantes existentes no seu dispositivo e processar estes dados para personalizar conteúdos e anúncios, assim como funcionalidades nas redes sociais e análise de tráfego.

  • Armazenar e/ou aceder a informações no seu dispositivo

    Os cookies, identificadores do dispositivo ou outras informações podem ser armazenados ou acedidos no seu dispositivo, para os fins acima indicados.

  • Anúncios e conteúdos personalizados, medição de anúncios e conteúdos, dados sobre o público-alvo e desenvolvimento de produtos

    Os anúncios e os conteúdos podem ser personalizados com base num perfil. Podem ser adicionados dados adicionais para uma maior personalização dos anúncios e dos conteúdos. A eficácia dos anúncios e dos conteúdos pode ser medida. Podem ser obtidas informações sobre o público que visualizou os anúncios e os conteúdos. Estes dados podem ser usados para desenvolver ou melhorar sistemas, softwares ou a experiência do utilizador.

Ao clicar em "Eu concordo”, permitirá o uso de cookies, identificadores do dispositivo e web beacons mencionados ou outras tecnologias semelhantes. As configurações do navegador do seu dispositivo podem ser alteradas.

Para certos fins, podem ser invocados interesses legítimos ao invés de consentimento. Pode ler mais informação sobre este assunto na nossa Política de Privacidade e Cookies.